Domov               UVHVVR             MKGP            O straneh              
ZDRAVSTVENO VARSTVO RASTLIN
  MREŽA AGROMET. POSTAJ
 ► PROGNOSTIČNA OBVESTILA
AGROMETEOROLOŠKI PODATKI -
ARSO
OBVLADOVANJE TVEGANJ ZARADI
NEUGODNIH VREMENSKIH RAZMER
  ► NARAVNE NESREČE
  ► SUŠA/MOČA
  ► NAMAKANJE
  ► ŽLED (gozdarstvo)
KARTOGRAFSKI PRIKAZI
SPLETNE POVEZAVE
PROJEKTI IN PUBLIKACIJE

AGROMETEOROLOŠKA MREŽA: VREMENSKE POSTAJE IN FENOLOŠKA OPAZOVANJA

Pregled podatkov za lokacijo Svečina, meteorološka postaja 24393

Pregled senzorjev na lokaciji

ID Ime Zadnja
vrednost
Datum
zadnje
spremembe
Tip
senzorja
922 Omočenost lista (U) 0 U 23.10.2017 07:30 A730WET
923 Temperatura 2 m ( °C) 6,06 °C 23.10.2017 07:30 Generic -40 - +60 °C
924 Relativna vlaga 2 m (% RH) 89,45 % RH 23.10.2017 07:30 Generic 0 - 100 %
925 Padavine 0.2 mm (mm) 0 mm 23.10.2017 07:30 Generic 0.2 mm

Pregled podatkov zadnjih 24 ur

Zap.
št.
Datum in čas Svečina
Omočenost
lista
Padavine
0.2
mm
Relativna
vlaga
2
m
Temperatura
2
m
0 23.10.2017 06:30 0 0 89,45 6,06
1 23.10.2017 06:00 0 0 89,65 6,06
2 23.10.2017 05:30 0 0 93,02 5,86
3 23.10.2017 05:00 0 0 99,1 5,69
4 23.10.2017 04:30 0 0 99,93 5,71
5 23.10.2017 04:00 0 0 99,93 5,76
6 23.10.2017 03:30 0 0 99,93 5,74
7 23.10.2017 03:00 0 0 99,05 5,86
8 23.10.2017 02:30 0 0 95,12 5,98
9 23.10.2017 02:00 0 0 94,68 6,06
10 23.10.2017 01:30 0 0 94,85 6,03
11 23.10.2017 01:00 0 0,2 95,82 6,03
12 23.10.2017 00:30 0 0 93,46 6,13
13 23.10.2017 00:00 0,2 93,24 6,11
14 22.10.2017 23:30 0,2 93,06 6,13
15 22.10.2017 23:00 0,4 91,11 6,37
16 22.10.2017 22:30 0,6 92,5 6,25
17 22.10.2017 22:00 0,6 92,94 6,45
18 22.10.2017 21:30 0,8 91,77 6,79
19 22.10.2017 21:00 1 93,14 7,03
20 22.10.2017 20:30 1,6 96,56 7,3
21 22.10.2017 20:00 1 95,46 7,4
22 22.10.2017 19:30 1,2 98,56 7,57
23 22.10.2017 19:00 1,6 99,85 7,72
24 22.10.2017 18:30 1,6 99,93 7,81
25 22.10.2017 18:00 1,2 99,93 7,79
26 22.10.2017 17:30 1 99,93 7,91
27 22.10.2017 17:00 0,6 99,93 8,13
28 22.10.2017 16:30 0,8 96,46 8,33
29 22.10.2017 16:00 0,4 97,58 8,5
30 22.10.2017 15:30 1 95,63 8,67
31 22.10.2017 15:00 0,6 93,97 8,86
32 22.10.2017 14:30 0,4 93,26 8,94
33 22.10.2017 14:00 1 92,45 9,04
34 22.10.2017 13:30 1,4 91,67 9,26
35 22.10.2017 13:00 0,6 90,31 9,6
36 22.10.2017 12:30 0,8 97,58 10,11
37 22.10.2017 12:00 2,2 99,93 10,16
© 2011 Ministrstvo za kmetijstvo, gozdarstvo in prehrano. Vse pravice pridržane.